[[{"header":{"parameterUnit":"m.s-1","parameterCategory":1,"la1":30.2991,"la2":30.254,"lo1":-89.0895,"lo2":-89.0444,"dy":0.0017,"dx":0.0017,"nx":28,"ny":28,"refTime":"2024-03-05T09:00:00:Z","depth":0,"parameterNumber":2,"parameterNumberName":"U-component_of_WINDS"},"data":[0,0,0,0,0,0,0,0,0,0,0,0,0,0,0,0,0,0,0,0,0,0,0,0,0,0,0,0,0,0,0,0,0,0,0,0,0,0,0,0,0,0,0,0,0,0,0,0,0,0,0,0,0,0,0,0,0,0,-0.8136,-0.8135,0,-0.8082,-0.8081,-0.808,-0.8013,-0.8012,-0.8011,-0.801,-0.7956,-0.7956,-0.7955,0,0,0,0,0,0,0,0,0,0,0,0,0,-0.8183,-0.8183,-0.8136,-0.8135,-0.8134,-0.8082,-0.8081,-0.808,-0.8013,-0.8012,-0.801,-0.8009,-0.7956,-0.7956,-0.7955,0,0,0,0,0,0,0,0,0,0,0,0,0,-0.8149,-0.8182,-0.8136,-0.8094,-0.809,-0.8082,-0.8081,-0.808,-0.8013,-0.8012,-0.801,-0.8009,-0.7957,-0.7956,-0.7955,-0.7984,0,0,-0.7953,-0.7953,0,0,0,0,0,0,0,0,-0.8151,-0.8148,-0.8101,-0.8097,-0.8092,-0.8052,-0.8078,-0.8048,-0.8014,-0.8043,-0.801,-0.8008,-0.799,-0.7986,-0.798,-0.7981,-0.7979,-0.7953,-0.7953,-0.7953,-0.7953,0,0,0,0,0,0,0,-0.8154,-0.815,-0.8114,-0.8101,-0.8095,-0.8079,-0.8073,-0.8072,-0.8026,-0.804,-0.8035,-0.8029,-0.7987,-0.798,-0.7978,-0.7978,-0.7953,-0.7953,-0.7952,-0.7952,-0.8001,-0.8003,0,0,0,0,0,0,-0.8162,-0.8152,-0.8116,-0.8113,-0.8118,-0.808,-0.8072,-0.8067,-0.8026,-0.8018,-0.8031,-0.8026,-0.7982,-0.7979,-0.7976,-0.8006,-0.7953,-0.7952,-0.7952,-0.8,-0.8002,-0.8003,0,0,0,0,0,0,-0.8163,-0.8159,-0.8118,-0.8131,-0.8124,-0.8081,-0.8075,-0.8067,-0.806,-0.8019,-0.801,-0.8032,-0.7981,-0.7977,-0.7982,-0.8004,-0.7952,-0.7951,-0.7998,-0.8,-0.8003,-0.8068,0,0,0,0,0,0,-0.8165,-0.816,-0.817,-0.8132,-0.8124,-0.8125,-0.8076,-0.8067,-0.8059,-0.8053,-0.8018,-0.8011,-0.7979,-0.7984,-0.7982,-0.8002,-0.7951,-0.7996,-0.7999,-0.8002,-0.8064,-0.8073,-0.808,0,0,0,0,0,-0.8167,-0.8191,-0.8171,-0.8167,-0.8135,-0.8126,-0.8122,-0.8085,-0.8061,-0.8071,-0.8044,-0.8012,-0.8002,-0.7985,-0.7982,-0.8002,-0.7994,-0.7998,-0.8002,-0.806,-0.8071,-0.808,0,0,0,0,0,0,-0.8233,-0.8185,-0.8162,-0.8175,-0.8155,-0.8115,-0.8126,-0.8097,-0.8085,-0.8079,-0.8034,-0.8027,-0.8038,-0.8021,-0.8003,-0.8028,-0.7993,-0.7997,-0.8039,-0.8048,-0.8056,-0.806,-0.795,0,0,0,0,0,-0.825,-0.8246,-0.8204,-0.8219,-0.821,-0.817,-0.8165,-0.8138,-0.8116,-0.8108,-0.8082,-0.8063,-0.8055,-0.8051,-0.8042,-0.8061,-0.8053,-0.8074,-0.8082,-0.8089,-0.8092,-0.8102,-0.8111,-0.8016,-0.8016,-0.8016,0,0,-0.8283,-0.8256,-0.8256,-0.8232,-0.8213,-0.8211,-0.8164,-0.8163,-0.8161,-0.8108,-0.8111,-0.8092,-0.8068,-0.808,-0.8085,-0.8066,-0.8117,-0.8094,-0.81,-0.8099,-0.8107,-0.8116,-0.8124,-0.8018,-0.8018,-0.8018,0,0,-0.8342,-0.8321,-0.8331,-0.8314,-0.8287,-0.826,-0.8263,-0.8227,-0.8212,-0.8215,-0.8175,-0.8172,-0.816,-0.8145,-0.8135,-0.819,-0.8159,-0.8188,-0.823,-0.824,-0.8247,-0.8254,-0.8273,-0.828,-0.8192,-0.8192,-0.8192,0,-0.8387,-0.8381,-0.834,-0.8342,-0.8333,-0.8284,-0.8295,-0.828,-0.8252,-0.8247,-0.8226,-0.821,-0.8191,-0.8199,-0.8213,-0.8207,-0.8209,-0.8191,-0.8249,-0.8255,-0.8261,-0.8279,-0.8286,-0.8195,-0.8195,-0.8195,-0.8194,0,-0.8437,-0.8434,-0.8446,-0.8419,-0.8411,-0.8417,-0.8379,-0.8376,-0.835,-0.8326,-0.833,-0.8304,-0.8289,-0.8289,-0.8264,-0.8295,-0.8284,-0.8257,-0.8221,-0.8274,-0.829,-0.8297,-0.8201,-0.8199,-0.8198,-0.8197,0,0,-0.8536,-0.8487,-0.8492,-0.8479,-0.8446,-0.8443,-0.8448,-0.8433,-0.8431,-0.8414,-0.8416,-0.8408,-0.8383,-0.8372,-0.8345,-0.8354,-0.8399,-0.8326,-0.8325,-0.834,-0.8431,-0.8451,-0.846,-0.8379,-0.838,-0.8381,-0.8433,0,-0.8588,-0.8592,-0.8557,-0.8571,-0.8567,-0.8522,-0.8526,-0.8507,-0.8485,-0.8479,-0.8455,-0.845,-0.8417,-0.8411,-0.8417,-0.8392,-0.8416,-0.8388,-0.8382,-0.8382,-0.8388,-0.8468,-0.8489,-0.8539,-0.8439,-0.844,-0.8441,0,-0.865,-0.8635,-0.8649,-0.8615,-0.8613,-0.8617,-0.86,-0.8596,-0.8573,-0.8557,-0.8546,-0.8515,-0.8518,-0.8484,-0.8488,-0.8469,-0.8465,-0.8453,-0.8454,-0.8451,-0.8414,-0.8467,-0.8554,-0.8561,-0.845,-0.845,-0.8449,0,-0.872,-0.8704,-0.871,-0.8701,-0.8662,-0.8666,-0.865,-0.8626,-0.862,-0.8606,-0.8601,-0.8588,-0.8581,-0.8572,-0.8538,-0.8517,-0.8547,-0.851,-0.8533,-0.8534,-0.854,-0.854,-0.8627,-0.8539,-0.8539,-0.8539,-0.8539,0,-0.8782,-0.8792,-0.8741,-0.8745,-0.8755,-0.8714,-0.8726,-0.8706,-0.8685,-0.8685,-0.8645,-0.8646,-0.8602,-0.8598,-0.8572,-0.858,-0.8577,-0.8564,-0.8557,-0.8567,-0.8569,-0.8563,-0.8558,-0.8541,-0.854,-0.854,-0.854,0,-0.8862,-0.8828,-0.8831,-0.8795,-0.8786,-0.8795,-0.8764,-0.8766,-0.8742,-0.8742,-0.874,-0.8702,-0.8695,-0.8661,-0.8647,-0.863,-0.8646,-0.8632,-0.8653,-0.8649,-0.8673,-0.8672,-0.8759,-0.8769,-0.8675,-0.8676,-0.8677,0,-0.8904,-0.891,-0.8874,-0.8871,-0.8856,-0.8851,-0.8844,-0.8805,-0.88,-0.8775,-0.8781,-0.8771,-0.876,-0.8752,-0.8724,-0.8713,-0.8699,-0.873,-0.8697,-0.8707,-0.8699,-0.8699,-0.8699,-0.8737,-0.8739,-0.874,-0.874,0,-0.8981,-0.8964,-0.8955,-0.894,-0.8932,-0.8919,-0.8903,-0.8903,-0.886,-0.8856,-0.8848,-0.8841,-0.8826,-0.8817,-0.8801,-0.8786,-0.8756,-0.8751,-0.8756,-0.8766,-0.8778,-0.8771,-0.8672,-0.8749,-0.8748,-0.8748,-0.8747,-0.8747,-0.9042,-0.9046,-0.9021,-0.9013,-0.8997,-0.8983,-0.8984,-0.8959,-0.8952,-0.8936,-0.8914,-0.891,-0.8888,-0.8864,-0.8851,-0.8848,-0.8831,-0.8838,-0.8839,-0.8842,-0.8847,-0.8779,-0.8845,-0.8845,-0.8844,-0.8844,-0.8844,0,-0.9118,-0.9099,-0.9092,-0.9071,-0.9064,-0.9037,-0.9018,-0.9015,-0.9011,-0.8993,-0.8984,-0.8976,-0.8967,-0.8938,-0.8927,-0.8929,-0.8916,-0.8928,-0.8927,-0.8924,-0.8863,-0.8859,-0.8939,-0.8939,-0.8939,-0.8939,-0.8939,-0.8939,-0.9156,-0.9161,-0.9141,-0.9138,-0.912,-0.9114,-0.9106,-0.9094,-0.9079,-0.9071,-0.9064,-0.9045,-0.9023,-0.9009,-0.9,-0.8992,-0.899,-0.9006,-0.8994,-0.8937,-0.8928,-0.8919,-0.8916,-0.9006,-0.9006,-0.9055,-0.9056,-0.9056]},{"header":{"parameterUnit":"m.s-1","parameterCategory":1,"la1":30.2991,"la2":30.254,"lo1":-89.0895,"lo2":-89.0444,"dy":0.0017,"dx":0.0017,"nx":28,"ny":28,"refTime":"2024-03-05T09:00:00:Z","depth":0,"parameterNumber":3,"parameterNumberName":"V-component_of_WINDS"},"data":[0,0,0,0,0,0,0,0,0,0,0,0,0,0,0,0,0,0,0,0,0,0,0,0,0,0,0,0,0,0,0,0,0,0,0,0,0,0,0,0,0,0,0,0,0,0,0,0,0,0,0,0,0,0,0,0,0,0,1.0466,1.0466,0,1.0552,1.0552,1.0553,1.0635,1.0636,1.0637,1.0638,1.0724,1.0725,1.0726,0,0,0,0,0,0,0,0,0,0,0,0,0,1.037,1.0372,1.0465,1.0467,1.0468,1.0551,1.0553,1.0554,1.0635,1.0636,1.0638,1.0639,1.0723,1.0725,1.0726,0,0,0,0,0,0,0,0,0,0,0,0,0,1.0429,1.0372,1.0465,1.0518,1.0524,1.0551,1.0553,1.0554,1.0635,1.0636,1.0638,1.0639,1.0723,1.0725,1.0727,1.0707,0,0,1.0733,1.0733,0,0,0,0,0,0,0,0,1.0426,1.0433,1.0509,1.0515,1.0521,1.0584,1.055,1.0605,1.0634,1.0593,1.0638,1.064,1.0676,1.0682,1.0694,1.0711,1.0715,1.0733,1.0734,1.0735,1.0735,0,0,0,0,0,0,0,1.0422,1.0429,1.0499,1.051,1.0518,1.0537,1.0548,1.0561,1.0624,1.0596,1.0602,1.0612,1.0679,1.0692,1.0697,1.0716,1.0733,1.0734,1.0736,1.0736,1.0723,1.0722,0,0,0,0,0,0,1.041,1.0426,1.0497,1.0502,1.0476,1.0538,1.0549,1.0562,1.0624,1.0635,1.061,1.0615,1.0688,1.0695,1.07,1.0683,1.0735,1.0737,1.0738,1.0725,1.0723,1.0721,0,0,0,0,0,0,1.0407,1.0415,1.0493,1.0466,1.0477,1.0538,1.0552,1.0563,1.0576,1.0635,1.0646,1.0612,1.069,1.0698,1.0706,1.0687,1.0737,1.0739,1.0727,1.0724,1.0722,1.0647,0,0,0,0,0,0,1.0404,1.0414,1.0408,1.0465,1.0478,1.0497,1.0551,1.0564,1.058,1.0587,1.064,1.065,1.0691,1.0702,1.0707,1.0691,1.0741,1.0728,1.0726,1.0723,1.0652,1.0643,1.0635,0,0,0,0,0,1.0401,1.0382,1.0407,1.0415,1.0472,1.0496,1.0504,1.0553,1.0578,1.0572,1.061,1.0648,1.0688,1.0702,1.0709,1.0692,1.073,1.0726,1.0723,1.0655,1.0644,1.0635,0,0,0,0,0,0,1.032,1.0391,1.0419,1.0418,1.0451,1.051,1.0504,1.0539,1.0564,1.057,1.0629,1.064,1.0642,1.0668,1.0682,1.0678,1.0714,1.0712,1.0661,1.0651,1.0643,1.0636,1.0742,0,0,0,0,0,1.0302,1.0317,1.0378,1.0372,1.0387,1.0442,1.0455,1.049,1.0525,1.0539,1.0577,1.061,1.063,1.0642,1.0663,1.0656,1.0669,1.0648,1.0639,1.0632,1.063,1.0629,1.062,1.071,1.071,1.071,0,0,1.0266,1.0306,1.0312,1.0356,1.0386,1.0399,1.0453,1.0465,1.0475,1.0541,1.0551,1.058,1.062,1.0621,1.0623,1.0643,1.0608,1.0628,1.0622,1.0623,1.0624,1.0616,1.0608,1.0708,1.0708,1.0709,0,0,1.0206,1.0238,1.0237,1.0266,1.031,1.0347,1.0347,1.0401,1.0423,1.0435,1.0484,1.0497,1.053,1.0557,1.0575,1.0527,1.0563,1.0532,1.0489,1.0487,1.048,1.0474,1.0458,1.0451,1.0529,1.0529,1.0529,0,1.0155,1.0178,1.0232,1.0241,1.026,1.0321,1.032,1.0345,1.0393,1.0404,1.0426,1.047,1.0501,1.0509,1.0497,1.0509,1.0511,1.0526,1.0477,1.0471,1.0467,1.0452,1.0445,1.0525,1.0526,1.0526,1.0526,0,1.0114,1.0129,1.0123,1.0169,1.0187,1.0191,1.0245,1.0256,1.029,1.0325,1.0336,1.0376,1.0407,1.0412,1.0444,1.0424,1.0436,1.0466,1.0504,1.0453,1.044,1.0435,1.0519,1.0521,1.0522,1.0523,0,0,1.0005,1.0082,1.0079,1.0102,1.0155,1.0168,1.0175,1.0206,1.0215,1.0246,1.0254,1.0281,1.031,1.033,1.0367,1.0365,1.0325,1.0396,1.0398,1.0382,1.0307,1.0284,1.0276,1.035,1.0349,1.0348,1.0304,0,0.9955,0.9973,1.0022,1.0024,1.0039,1.0097,1.0103,1.0136,1.0169,1.0187,1.0223,1.0241,1.0278,1.0291,1.0292,1.033,1.0311,1.0334,1.0357,1.0357,1.0346,1.0269,1.0245,1.0201,1.0299,1.0298,1.0298,0,0.9899,0.9928,0.9932,0.9986,0.9994,0.9999,1.0033,1.0048,1.0087,1.0111,1.0134,1.0175,1.0185,1.022,1.0236,1.025,1.0263,1.0283,1.0282,1.0286,1.0324,1.0272,1.0188,1.0182,1.029,1.029,1.0291,0,0.9821,0.9861,0.9869,0.9886,0.9949,0.9951,0.9977,1.0017,1.0034,1.0063,1.0074,1.0103,1.0119,1.014,1.0188,1.0209,1.0198,1.0237,1.0218,1.0217,1.0213,1.0213,1.0131,1.022,1.0221,1.0221,1.0221,0,0.9761,0.9761,0.9835,0.9839,0.9842,0.9898,0.9898,0.9929,0.9965,0.9977,1.0029,1.0038,1.01,1.0117,1.0154,1.0161,1.0168,1.0187,1.0197,1.0183,1.0181,1.0192,1.0197,1.0219,1.0219,1.022,1.022,0,0.9673,0.9723,0.9736,0.9794,0.9809,0.9808,0.9858,0.9865,0.9901,0.9916,0.9922,0.9979,1.0001,1.0051,1.0086,1.0111,1.011,1.0127,1.0097,1.0103,1.0082,1.0083,1.0005,0.9998,1.0091,1.009,1.0089,0,0.9632,0.9634,0.9693,0.9705,0.973,0.9748,0.9765,0.9821,0.9836,0.9881,0.9883,0.991,0.9934,0.9967,1.0011,1.0039,1.0058,1.0028,1.0062,1.0048,1.0058,1.0058,1.0058,1.0021,1.0019,1.0018,1.0017,0,0.9553,0.9578,0.9601,0.9633,0.9652,0.968,0.971,0.9717,0.9779,0.9794,0.9819,0.9837,0.9875,0.9901,0.9935,0.9962,1.0,1.0007,1.0004,0.999,0.9972,0.9982,1.0077,1.0008,1.0009,1.001,1.001,1.0011,0.9488,0.9493,0.9536,0.956,0.9589,0.9616,0.9626,0.9664,0.9685,0.9721,0.9752,0.9773,0.9813,0.9863,0.9887,0.9905,0.9924,0.9919,0.9918,0.9917,0.9911,0.9969,0.9911,0.9911,0.9912,0.9912,0.9912,0,0.9413,0.9443,0.9465,0.9507,0.9526,0.9561,0.9597,0.961,0.9629,0.9663,0.9686,0.9714,0.974,0.9786,0.9816,0.9821,0.9839,0.9827,0.9827,0.9833,0.9892,0.9892,0.9812,0.9812,0.9812,0.9812,0.9812,0.9812,0.9376,0.9386,0.9415,0.944,0.9471,0.9494,0.9511,0.9536,0.9564,0.9593,0.9616,0.9646,0.9685,0.9718,0.9743,0.9756,0.9765,0.9747,0.9765,0.9819,0.9829,0.9838,0.9838,0.9748,0.9748,0.9706,0.9705,0.9705]}]]